Regional Weather Roundup
Issued by NWS Sterling, VA

Home | Current Version | Previous Version | Graphics & Text | Print | Product List | Glossary On
Versions: 1 2 3 4 5 6 7 8 9 10 11 12 13 14 15 16 17 18 19 20 21 22 23 24 25 26 27 28 29 30 31 32 33 34 35 36 37 38 39 40 41 42 43 44 45 46 47 48 49
000
ASUS41 KLWX 242310
RWRLWX

REGIONAL WEATHER ROUNDUP
NATIONAL WEATHER SERVICE BALTIMORE MD/WASHINGTON DC
700 PM EDT FRI APR 24 2015

Note: "FAIR" indicates few or no clouds below 12,000 feet
with no significant weather and/or obstructions to visibility.
 TC=TEMPERATURE CELSIUS

 * =Non NWS site. Station does not report precipitation (e.g. rain,
    snow, etc.), thunder, or fog.

DCZ001-MDZ009-015-VAZ040>042-051-053>054-250000-
WASHINGTON METRO

CITY           SKY/WX    TMP DP  RH WIND       PRES   REMARKS
WASHINGTON NAT PTCLDY    61  19  19 NW15G26   29.92S
DULLES         MOCLDY    58  19  22 NW18      29.92R
ANDREWS AFB    CLEAR     58  19  22 NW14G24   29.91R
FT BELVOIR     CLEAR     60  19  20 NW13      29.92R
QUANTICO       CLEAR     61  16  17 N10       29.93R
COLLEGE PARK*  CLEAR     59  19  21 NW6       29.91S
LEESBURG*      CLEAR     59  28  31 NW10G21   29.93R
MANASSAS*      CLEAR     59  19  21 NW15      29.93R
GAITHERSBURG*  CLEAR     55  19  24 NW15G21   29.95R

$$

MDZ006>007-011-014-250000-
BALTIMORE METRO

CITY           SKY/WX    TMP DP  RH WIND       PRES   REMARKS
BWI AIRPORT    PTCLDY    56  20  24 NW12G23   29.90S
MD SCIENCE CTR   N/A     57  17  21 MISG      29.91R
MARTIN STATE   CLEAR     57  23  26 W20       29.91S
ANNAPOLIS      CLEAR     58  21  24 NW13G21   29.91R
FORT MEADE*    CLEAR     55  21  26 NW9G18    29.93S

$$

MDZ012-015-019>023-250000-
MARYLAND EASTERN SHORE

CITY           SKY/WX    TMP DP  RH WIND       PRES   REMARKS
OCEAN CITY     CLEAR     55  20  25 NW9       29.91S
SALISBURY      CLEAR     55  20  25 W8        29.91S
BAY BRIDGE AP*   N/A    N/A N/A N/A NW15G23   29.91S
CAMBRIDGE*     CLEAR     59  23  25 NW7       29.91R
EASTON*        CLEAR     57  27  30 NW17G35   29.94S

$$

MDZ017>025-250000-
SOUTHERN MARYLAND

CITY           SKY/WX    TMP DP  RH WIND       PRES   REMARKS
PATUXENT RIVER MOCLDY    58  24  27 NW12      29.92R
ST INIGOES     CLEAR     58  23  26 W8        29.92R
LEONARDTOWN*   CLEAR     57  16  19 NW6       29.93S

$$

MDZ003>005-250000-
NORTH CENTRAL MARYLAND

CITY           SKY/WX    TMP DP  RH WIND       PRES   REMARKS
FREDERICK*     CLEAR     57   9  14 NW16G23   29.94S
HAGERSTOWN APT CLEAR     56  19  23 W18G25    29.91R
WESTMINSTER*   CLEAR     55  16  21 W16G22    29.90S

$$

MDZ501>502-250000-
WESTERN MARYLAND

CITY           SKY/WX    TMP DP  RH WIND       PRES   REMARKS
OAKLAND*       SUNNY     43  19  39 NW10G24   29.94S
CUMBERLAND*    SUNNY     55  19  24 W10G28    29.99R

$$

VAZ025>031-250000-
SHENANDOAH VALLEY

CITY           SKY/WX    TMP DP  RH WIND       PRES   REMARKS
WINCHESTER*    SUNNY     57   7  13 NW13G21   29.93S
FRONT ROYAL*   FAIR      57  19  23 W13G18    29.92R
LURAY*         FAIR      61  23  23 NW6       29.93S
NEW MARKET*    FAIR      59  17  19 NW6       29.92F
STAUNTON*      SUNNY     60  17  19 NW9       29.93F
WAYNESBORO*    FAIR      58  15  18 NW9       29.92S

$$

WVZ021-048>050-054>055-250000-
EASTERN WEST VIRGINIA PANHANDLE

CITY           SKY/WX    TMP DP  RH WIND       PRES   REMARKS
MARTINSBURG    SUNNY     57  18  21 W21G29    29.93S
PETERSBURG*    SUNNY     56  15  19 NW15      29.96S

$$

VAZ036>039-050-250000-
CENTRAL FOOTHILLS

CITY           SKY/WX    TMP DP  RH WIND       PRES   REMARKS
CHARLOTTESVILL SUNNY     63  17  17 NW5       29.90S
CULPEPER*      PTCLDY    63  14  15 NW8       29.92S
ORANGE*        CLEAR     63  19  19 CALM      29.93S
GORDONSVILLE*  FAIR      62  16  17 N5        29.90S
WARRENTON*     FAIR      61  25  25 NW8       29.91S

$$

VAZ055>057-250000-
NORTH AND CENTRAL PIEDMONT

CITY           SKY/WX    TMP DP  RH WIND       PRES   REMARKS
FREDERICKSBRG* CLEAR     64  19  17 NW8       29.91S
STAFFORD*      CLEAR     59  15  18 NW13      29.96R

$$

NCZ024-NYZ072-PAZ021-071-VAZ022-071-250000-
OTHER REGIONAL OBSERVATIONS

CITY           SKY/WX    TMP DP  RH WIND       PRES   REMARKS
NEW YORK CITY  CLEAR     46  18  32 VRB7      29.90R
PHILADELPHIA   PTCLDY    56  14  19 W17G28    29.87S
PITTSBURGH     PTSUNNY   54  17  23 NW18      29.97F
ROANOKE        PTSUNNY   63  18  17 NW10      29.95F
RICHMOND       PTCLDY    65  18  16 W10       29.91S
RALEIGH        PTSUNNY   63  31  30 W8        29.96S

$$

ANZ530>537-250000-
MARINE OBSERVATIONS

STATION/POSITION TIME  TEMP    WIND        PRES
                       AIR SEA DIR/SP/G
                 (UTC) (F)     (DEG/KT/KT) (MB)
THOMAS PT LIGHT  2300   57 53  300/ 17/ 20 1013.3R
BALT KEY BRIDGE  2200   56     300/ 20/ 24 1012.2S
COVE POINT       2200   57     330/ 13/ 18 1013.1F
LEWISETTA        2200   59 59              1012.8F
SOLOMONS ISLAND  2200      58                N/A
PINEY POINT      2200          320/ 12/ 13   N/A

$$




USA.gov is the U.S. government's official web portal to all federal, state and local government web resources and services.